Lid_Strength_Index
-0 -1 -1 -1 -1 -1 -1 -1 -1 -1 -1 -1 -1 -1 -1 -1 -1 3 7 4 2 -1 0 7 7 7 7 8 9 10 12 14 13 13 11 11 11 10 9 10 9 9 9 8 5
-0 -0 -0 -0 -0 -0 -0 -0 -0 -1 -1 -1 -1 -1 -1 -1 4 6 1 -2 -2 -0 7 8 9 8 9 9 10 12 13 12 12 12 11 11 10 10 10 10 10 9 9 7 5
-0 -0 -0 -0 -0 -0 -0 -0 -0 -1 -1 -1 -1 -1 -1 1 7 7 -1 -1 -1 2 6 7 8 9 10 10 10 12 14 12 11 10 10 10 11 10 11 11 10 9 9 8 6
-0 -0 0 0 0 -0 -0 -0 -0 -0 -1 -1 -1 -1 -0 5 13 5 -1 -1 -1 4 6 8 9 10 11 11 10 12 12 12 10 10 10 11 11 11 11 10 9 9 9 7 6
-0 -0 0 0 0 -0 -0 -0 -0 -0 -0 -1 -1 -1 5 9 8 4 -0 1 5 6 8 9 10 10 12 11 11 12 12 11 10 10 11 10 11 11 11 10 9 10 9 8 6
0 0 -0 0 0 -0 -0 -0 -0 -0 -0 -1 -1 -0 7 13 5 4 5 6 6 7 8 9 9 9 10 11 12 11 10 11 10 10 10 11 11 11 10 10 10 10 10 9 8
1 0 0 -0 0 -0 -0 -0 -0 -0 -0 -0 -1 3 9 10 4 6 6 7 7 7 8 8 8 9 10 11 10 11 12 11 12 11 11 10 12 11 10 10 10 10 11 10 9
1 0 -0 -0 0 0 -0 -0 -0 0 -0 -1 -1 6 11 6 4 5 6 7 7 7 7 7 7 8 10 10 11 12 13 14 12 11 11 11 14 11 11 11 10 11 11 11 11
1 1 1 1 0 0 -0 -0 -0 -0 -1 -1 5 8 12 4 6 5 7 8 8 7 7 7 8 11 10 12 14 14 16 15 13 11 12 12 13 12 12 12 12 11 11 11 11
1 1 1 1 1 0 -0 -1 -0 0 1 3 5 11 10 10 6 6 7 7 9 9 9 9 11 13 14 14 17 15 16 16 15 13 13 14 13 12 12 12 11 12 12 12 11
1 1 1 1 1 1 3 7 8 8 7 11 11 12 9 7 6 7 7 8 9 10 13 12 13 14 13 13 14 15 16 16 14 13 13 13 14 12 11 13 12 12 11 11 11
2 1 0 1 1 1 4 7 9 7 9 7 9 8 7 6 9 7 7 9 11 13 13 14 15 12 12 13 13 15 15 15 14 13 13 14 14 12 12 11 10 10 10 10 10
3 2 1 1 1 2 5 6 4 5 10 9 7 8 8 7 9 9 7 10 12 13 13 14 13 12 12 14 14 15 15 15 14 14 14 15 16 14 12 12 11 11 10 10 10
3 2 1 1 3 4 5 3 3 7 13 12 11 8 8 8 10 8 8 9 12 12 13 13 12 12 13 14 13 16 13 14 14 15 17 15 19 15 13 13 12 11 11 10 10
1 3 3 1 3 4 4 2 3 6 20 12 12 7 9 10 10 9 8 9 12 12 12 14 13 13 13 13 12 14 13 14 15 15 16 17 17 16 15 14 12 11 10 10 10
1 1 2 1 2 2 2 2 3 13 19 13 11 11 12 11 11 10 10 9 10 11 12 13 12 12 12 12 12 12 13 14 15 15 19 16 16 17 16 13 12 11 10 10 11
1 1 2 2 3 1 1 4 14 18 10 13 13 12 13 13 13 12 12 13 13 15 15 14 13 12 11 13 12 13 14 18 19 20 19 17 17 14 14 13 12 11 10 11 11
2 1 3 1 1 1 2 9 17 13 13 12 12 13 14 13 14 14 14 14 12 14 17 16 17 13 12 12 13 14 14 17 21 22 20 18 19 16 13 12 12 12 12 12 12
2 5 4 3 1 0 6 15 14 12 11 11 11 14 14 13 13 14 15 15 13 13 15 17 16 13 13 12 11 14 15 13 16 24 21 18 17 14 13 13 12 12 12 12 12
5 6 6 2 1 3 9 13 11 9 9 9 13 12 14 13 14 15 15 14 13 12 12 14 17 14 14 12 13 13 12 16 17 22 24 19 19 17 15 13 12 12 12 12 12
6 9 5 1 1 6 12 11 10 8 8 10 12 12 12 13 13 15 14 13 13 13 11 13 15 17 15 15 15 14 15 15 15 17 20 22 18 15 13 13 13 12 12 12 12
8 12 5 1 8 8 11 10 7 8 7 9 9 10 11 11 12 13 14 12 11 11 13 12 13 17 16 15 15 16 15 14 17 20 19 19 16 14 13 12 12 12 12 12 12
9 10 6 2 12 11 10 9 8 9 9 9 10 9 9 11 13 12 11 11 10 11 12 11 13 20 16 16 17 16 16 15 16 18 19 19 16 14 14 13 13 12 12 12 12
8 13 10 7 7 10 11 11 11 8 8 8 9 9 10 12 10 12 12 11 10 10 8 9 12 15 17 16 15 17 16 14 14 17 16 17 14 12 13 13 12 12 12 12 12
7 11 11 14 12 10 9 9 11 11 8 8 10 10 11 13 12 13 11 10 9 8 9 9 15 13 12 13 14 15 15 14 14 14 16 14 14 13 11 11 11 10 12 12 12
8 9 10 12 10 12 11 11 11 9 9 11 10 9 10 12 11 12 10 11 11 9 10 10 14 13 15 12 12 14 14 14 14 13 13 13 13 10 10 12 12 11 10 11 12
5 5 7 10 12 12 12 12 12 10 9 7 9 10 10 10 8 8 8 9 9 10 11 12 13 15 17 13 14 17 14 13 13 13 13 15 12 10 11 11 11 11 11 11 10